Weather in Kholmets

Russia / Tver Oblast     56°20′45″N   33°21′23″E
temp.,
°C
wind,
m/s
gust,
m/s
humid.,
%
clouds,
%
prec.,
mm/h
press.,
hPa
HPBL,
m
12 april, mon
mon1200:00+8s248043 0.0 103055
03:00+6sse25835 0.0 103174
06:00+5se26815 0.0 103195
09:00+10se38610 0.0 1031344
12:00+14se594491 0.0 10291147
15:00+15ese5839100 0.0 10271286
18:00+12se51052100 0.0 1025790
21:00+10se31076100 0.0 1025369
13 april, tue
tue1300:00+9ese2889100 0.0 1024234
03:00+8ese2595100 0.0 1023152
06:00+8ese2497100 0.0 102294
09:00+11sse248098 0.0 1021261
12:00+15s3664100 0.0 1021746
15:00+18s485086 0.0 10201569
18:00+15se3865100 0.1 1019194
21:00+11sse278099 0.2 1019156
14 april, wed
wed1400:00+11ssw258881 0.2 1019162
03:00+10s2494100 0.3 1018102
06:00+9se239663 0.3 101777
09:00+11s258266 0.7 1017311
12:00+15s3566100 0.4 10161130
15:00+15ssw356499 1.2 1016873
18:00+14s247293 0.8 1016393
21:00+10se119094 1.9 101712
15 april, thu
thu1500:00+10ne2393100 0.5 101762
03:00+9ne2595100 0.9 1017138
06:00+9ene3893100 0.1 1017231
09:00+10e41186100 0.1 1017677
12:00+9ene3693100 1.6 1018280
15:00+10ne3891100 2.4 1018267
18:00+11ne3985100 0.3 1018451
21:00+9ene51190100 1.8 1019533
16 april, fri
fri1600:00+7ene41094100 0.4 1020440
03:00+6ne51194100 1.4 1020363
06:00+6ene51494100 0.1 1020475
09:00+6ne51390100 0.8 1021525
12:00+10ene6127897 0.0 1022772
15:00+12ene61071100 0.0 10221059
18:00+10ene61172100 0.0 1023965
21:00+8ene61473100 0.0 1024862